^^
Atglen Borough Weather Station Historical Data
 
Daily Summary for September 22, 2018 Units:  English    Metric   Both
Daily Weekly Monthly Yearly Custom
  Current: High: Low: Average:
Temperature: 65.5 °F 72.3 °F 65.5 °F 70.1 °F
Dew Point: 54.3 °F 69.6 °F 54.3 °F 64.7 °F
Humidity: 67% 96% 61% 84%
Wind Speed: 10.1mph 13mph 0mph 3.3mph
Wind Gust: 11mph 16mph - -
WindNNW - - SSW
Pressure: 30.14 in 30.15 in 29.96 in -
Precipitation: 0.02 in      
Historical Graphs
 
 
Tabular Data for September 22, 2018
Time Temperature Dew Point Pressure Wind Wind Speed Wind Gust Humidity Rainfall Rate (Hourly)
00:04 71.4 °F 68.9 °F 29.98 in SSW 6.9 mph 13 mph 92% 0 in
00:09 71.8 °F 69.3 °F 29.98 in SSW 6 mph 15 mph 92% 0 in
00:14 71.8 °F 69.3 °F 29.98 in SSW 4 mph 9 mph 92% 0 in
00:19 71.8 °F 69.1 °F 29.98 in WSW 2.9 mph 8 mph 91% 0 in
00:24 72 °F 69.3 °F 29.98 in SSW 2.9 mph 8 mph 91% 0 in
00:29 72 °F 69.3 °F 29.98 in SW 4.9 mph 11 mph 91% 0 in
00:34 72 °F 69.3 °F 29.98 in WSW 0.9 mph 13 mph 91% 0 in
00:39 72.1 °F 69.4 °F 29.98 in SW 2.9 mph 8 mph 91% 0 in
00:44 72.1 °F 69.4 °F 29.98 in SSW 0.9 mph 8 mph 91% 0 in
00:49 72.1 °F 69.4 °F 29.98 in SSE 6 mph 12 mph 91% 0 in
00:54 72.3 °F 69.3 °F 29.98 in SSW 2 mph 10 mph 90% 0 in
00:59 72.3 °F 69.3 °F 29.97 in South 2.9 mph 10 mph 90% 0 in
01:04 72.3 °F 69.3 °F 29.98 in West 2.9 mph 7 mph 90% 0 in
01:09 72.3 °F 69.3 °F 29.99 in West 0.9 mph 5 mph 90% 0 in
01:14 72.3 °F 69.3 °F 29.98 in South 2 mph 8 mph 90% 0 in
01:19 72.3 °F 69.3 °F 29.98 in SW 2.9 mph 10 mph 90% 0 in
01:24 72.3 °F 69.3 °F 29.98 in SW 4 mph 7 mph 90% 0 in
01:29 72.3 °F 69.3 °F 29.99 in SW 4 mph 9 mph 90% 0 in
01:34 72.3 °F 69.3 °F 30.00 in NW 4.9 mph 9 mph 90% 0 in
01:39 72.3 °F 69.3 °F 30.00 in West 6 mph 6 mph 90% 0 in
01:44 72.3 °F 69.6 °F 29.99 in SW 0.9 mph 5 mph 91% 0 in
01:49 72.3 °F 69.6 °F 29.98 in SSW 0.9 mph 3 mph 91% 0 in
01:54 72.3 °F 69.6 °F 29.98 in Calm   3 mph 91% 0 in
01:59 72.3 °F 69.6 °F 29.98 in SSW 2 mph 3 mph 91% 0 in
02:04 72.3 °F 69.6 °F 29.98 in SSW 2.9 mph 4 mph 91% 0 in
02:09 72.3 °F 69.6 °F 29.98 in SSW 0.9 mph 5 mph 91% 0 in
02:14 72.3 °F 69.6 °F 29.98 in SW 4 mph 4 mph 91% 0 in
02:19 72.3 °F 69.6 °F 29.98 in SSW 2 mph 5 mph 91% 0 in
02:24 72.1 °F 69.4 °F 29.98 in SSW 2 mph 5 mph 91% 0 in
02:29 72.1 °F 69.4 °F 29.98 in West 0.9 mph 6 mph 91% 0 in
02:34 72.1 °F 69.4 °F 29.98 in West 0.9 mph 2 mph 91% 0 in
02:39 72.1 °F 69.4 °F 29.98 in West 2 mph 2 mph 91% 0 in
02:44 72.1 °F 69.6 °F 29.98 in WSW 0.9 mph 4 mph 92% 0 in
02:49 72.1 °F 69.6 °F 29.97 in WSW 0.9 mph 1 mph 92% 0 in
02:54 72 °F 69.4 °F 29.97 in Calm   1 mph 92% 0 in
02:59 72 °F 69.3 °F 29.97 in WSW 0.9 mph 3 mph 91% 0 in
03:04 71.8 °F 69.3 °F 29.97 in Calm   1 mph 92% 0 in
03:09 71.8 °F 69.3 °F 29.97 in Calm   1 mph 92% 0 in
03:14 71.8 °F 69.3 °F 29.96 in Calm     92% 0 in
03:19 71.6 °F 69.1 °F 29.97 in Calm   3 mph 92% 0 in
03:24 71.4 °F 68.9 °F 29.97 in Calm   1 mph 92% 0 in
03:29 71.4 °F 68.9 °F 29.97 in Calm   1 mph 92% 0 in
03:34 71.2 °F 68.7 °F 29.97 in Calm   1 mph 92% 0 in
03:39 71.2 °F 68.7 °F 29.97 in Calm     92% 0 in
03:44 71.2 °F 68.7 °F 29.98 in Calm   1 mph 92% 0 in
03:49 71.2 °F 68.7 °F 29.97 in Calm     92% 0 in
03:54 71.1 °F 68.9 °F 29.98 in Calm   2 mph 93% 0 in
03:59 71.1 °F 68.9 °F 29.98 in WSW 0.9 mph 1 mph 93% 0 in
04:04 71.1 °F 68.9 °F 29.98 in WSW 0.9 mph 2 mph 93% 0 in
04:09 71.1 °F 68.9 °F 29.98 in Calm   2 mph 93% 0.01 in
04:14 71.1 °F 68.9 °F 29.98 in WSW 0.9 mph 2 mph 93% 0.01 in
04:19 71.1 °F 69.3 °F 29.98 in WSW 0.9 mph 2 mph 94% 0.02 in
04:24 70.9 °F 69.1 °F 29.97 in Calm   3 mph 94% 0.02 in
04:29 70.9 °F 69.1 °F 29.98 in Calm   1 mph 94% 0.02 in
04:34 70.9 °F 69.1 °F 29.97 in Calm   3 mph 94% 0.02 in
04:39 70.9 °F 69.1 °F 29.97 in Calm   1 mph 94% 0.02 in
04:44 70.9 °F 69.1 °F 29.98 in Calm   3 mph 94% 0.02 in
04:49 70.9 °F 69.1 °F 29.98 in Calm   2 mph 94% 0.02 in
04:54 70.9 °F 69.1 °F 29.98 in WNW 0.9 mph 2 mph 94% 0.02 in
04:59 70.9 °F 69.1 °F 29.98 in WNW 0.9 mph 2 mph 94% 0.02 in
05:04 70.9 °F 69.1 °F 29.99 in WNW 2 mph 3 mph 94% 0.02 in
05:09 70.9 °F 69.1 °F 29.99 in Calm   2 mph 94% 0.01 in
05:14 70.7 °F 68.9 °F 29.99 in Calm   1 mph 94% 0.01 in
05:19 70.7 °F 68.9 °F 29.99 in Calm     94% 0 in
05:24 70.5 °F 68.7 °F 29.99 in Calm     94% 0 in
05:29 70.5 °F 68.7 °F 30.00 in Calm     94% 0 in
05:34 70.5 °F 68.7 °F 30.00 in Calm     94% 0 in
05:39 70.3 °F 68.5 °F 30.00 in Calm     94% 0 in
05:44 70.3 °F 68.5 °F 30.00 in Calm     94% 0 in
05:49 70.3 °F 68.5 °F 30.01 in Calm     94% 0 in
05:54 70.2 °F 68.7 °F 30.01 in Calm     95% 0 in
05:59 70.2 °F 68.7 °F 30.01 in Calm     95% 0 in
06:04 70.2 °F 68.4 °F 30.02 in Calm     94% 0 in
06:09 70 °F 68.2 °F 30.02 in Calm   3 mph 94% 0 in
06:14 69.8 °F 68 °F 30.02 in Calm   2 mph 94% 0 in
06:19 69.6 °F 68.2 °F 30.02 in WSW 0.9 mph 2 mph 95% 0 in
06:24 69.6 °F 68.2 °F 30.02 in WSW 0.9 mph 2 mph 95% 0 in
06:29 69.6 °F 68.2 °F 30.02 in Calm   2 mph 95% 0 in
06:34 69.4 °F 68 °F 30.03 in Calm   2 mph 95% 0 in
06:39 69.4 °F 68 °F 30.03 in Calm   6 mph 95% 0 in
06:44 69.4 °F 68 °F 30.03 in WSW 2 mph 4 mph 95% 0 in
06:49 69.6 °F 68.2 °F 30.03 in NW 4 mph 4 mph 95% 0 in
06:54 69.6 °F 68.2 °F 30.04 in Calm   3 mph 95% 0 in
06:59 69.6 °F 68.2 °F 30.04 in WNW 4.9 mph 7 mph 95% 0 in
07:03 69.6 °F 68.2 °F 30.04 in Calm   4 mph 95% 0 in
07:08 69.6 °F 68.2 °F 30.04 in NW 2.9 mph 5 mph 95% 0 in
07:13 69.6 °F 68.2 °F 30.05 in NW 2 mph 3 mph 95% 0 in
07:17 69.6 °F 68.2 °F 30.05 in NNW 2 mph 2 mph 95% 0 in
07:22 69.4 °F 68 °F 30.05 in West 0.9 mph 4 mph 95% 0 in
07:27 69.4 °F 68 °F 30.06 in NW 2 mph 4 mph 95% 0 in
07:32 69.4 °F 68 °F 30.05 in NW 0.9 mph 4 mph 95% 0 in
07:37 69.4 °F 68 °F 30.06 in Calm   4 mph 95% 0 in
07:44 69.4 °F 68 °F 30.06 in NNW 4 mph 6 mph 95% 0 in
07:49 69.6 °F 68.4 °F 30.06 in NNW 8.1 mph 8 mph 96% 0 in
07:54 69.6 °F 68.2 °F 30.06 in NW 4 mph 6 mph 95% 0 in
07:59 69.6 °F 68.2 °F 30.06 in NW 2.9 mph 6 mph 95% 0 in
08:04 69.8 °F 68.4 °F 30.06 in NW 2 mph 4 mph 95% 0 in
08:09 69.6 °F 68.2 °F 30.06 in NW 2 mph 9 mph 95% 0 in
08:14 69.4 °F 68 °F 30.07 in WNW 6.9 mph 13 mph 95% 0 in
08:19 68.9 °F 66.7 °F 30.07 in NNW 2.9 mph 10 mph 93% 0 in
08:24 68.5 °F 66.2 °F 30.07 in NNE 4 mph 12 mph 92% 0 in
08:29 68.4 °F 65.7 °F 30.08 in NNE 4.9 mph 6 mph 91% 0 in
08:34 68.4 °F 65.3 °F 30.08 in NNW 4 mph 9 mph 90% 0 in
08:39 68.2 °F 64.8 °F 30.08 in NNW 8.1 mph 11 mph 89% 0 in
08:44 67.8 °F 63.9 °F 30.09 in NNE 4 mph 11 mph 87% 0 in
08:49 67.6 °F 63.7 °F 30.09 in North 4.9 mph 10 mph 87% 0 in
08:54 67.5 °F 63.5 °F 30.09 in NNW 4.9 mph 11 mph 87% 0 in
08:59 67.5 °F 63.1 °F 30.09 in North 11 mph 12 mph 86% 0 in
09:04 67.6 °F 63.7 °F 30.09 in NNE 2.9 mph 8 mph 87% 0 in
09:09 67.8 °F 63.5 °F 30.09 in North 4.9 mph 5 mph 86% 0 in
09:14 67.8 °F 63.5 °F 30.09 in NNW 2 mph 9 mph 86% 0 in
09:19 67.8 °F 63.5 °F 30.09 in NNW 8.9 mph 11 mph 86% 0 in
09:24 67.6 °F 63 °F 30.09 in WNW 4.9 mph 8 mph 85% 0 in
09:29 67.5 °F 62.1 °F 30.09 in NNE 4 mph 8 mph 83% 0 in
09:34 67.5 °F 62.1 °F 30.09 in West 2.9 mph 6 mph 83% 0 in
09:39 67.5 °F 61.3 °F 30.09 in NNE 2 mph 7 mph 81% 0 in
09:44 67.6 °F 60.3 °F 30.10 in NW 2 mph 11 mph 77% 0 in
09:49 68 °F 60.1 °F 30.10 in North 4.9 mph 11 mph 76% 0 in
09:54 67.8 °F 59.5 °F 30.11 in NE 4.9 mph 9 mph 75% 0 in
09:59 67.8 °F 59.5 °F 30.10 in NNW 2.9 mph 6 mph 75% 0 in
10:04 68.4 °F 60.1 °F 30.11 in North 4 mph 6 mph 75% 0 in
10:09 68.7 °F 60.4 °F 30.11 in North 2.9 mph 8 mph 75% 0 in
10:14 68.7 °F 59.7 °F 30.11 in WNW 13 mph 13 mph 73% 0 in
10:19 68.4 °F 60.1 °F 30.11 in NNW 2.9 mph 10 mph 75% 0 in
10:24 68.4 °F 59.4 °F 30.11 in West 8.9 mph 11 mph 73% 0 in
10:29 68.4 °F 59 °F 30.11 in NW 8.1 mph 12 mph 72% 0 in
10:34 68.4 °F 58.6 °F 30.11 in NNW 4 mph 12 mph 71% 0 in
10:39 68.4 °F 59.4 °F 30.11 in NNW 4.9 mph 9 mph 73% 0 in
10:44 69.1 °F 59.4 °F 30.11 in NNE 2 mph 6 mph 71% 0 in
10:49 69.8 °F 59.5 °F 30.11 in NNE 4 mph 10 mph 70% 0 in
10:54 70.3 °F 59.7 °F 30.11 in North 6.9 mph 12 mph 69% 0 in
10:59 70.5 °F 59 °F 30.11 in NNE 4 mph 12 mph 67% 0 in
11:04 71.1 °F 60.4 °F 30.11 in NNE 2.9 mph 12 mph 69% 0 in
11:09 70.5 °F 57.7 °F 30.11 in North 8.9 mph 14 mph 64% 0 in
11:14 70 °F 59 °F 30.11 in North 6 mph 12 mph 68% 0 in
11:19 70.2 °F 59.2 °F 30.12 in NNW 11 mph 13 mph 68% 0 in
11:24 70.9 °F 59.4 °F 30.11 in North 4 mph 10 mph 67% 0 in
11:29 72 °F 59.5 °F 30.11 in NNW 4.9 mph 9 mph 65% 0 in
11:34 71.4 °F 58.1 °F 30.11 in NNE 13 mph 13 mph 63% 0 in
11:39 71.2 °F 59.7 °F 30.12 in North 8.9 mph 12 mph 67% 0 in
11:44 70.9 °F 59 °F 30.11 in NNW 4 mph 9 mph 66% 0 in
11:49 71.2 °F 58.5 °F 30.11 in North 8.9 mph 9 mph 64% 0 in
11:54 71.6 °F 58.8 °F 30.12 in NNE 6.9 mph 12 mph 64% 0 in
11:59 70.9 °F 58.5 °F 30.12 in North 8.1 mph 11 mph 65% 0 in
12:04 70.5 °F 58.6 °F 30.12 in NNW 10.1 mph 11 mph 66% 0 in
12:09 70.5 °F 57.7 °F 30.12 in North 2 mph 9 mph 64% 0 in
12:14 71.2 °F 57.6 °F 30.12 in NW 8.9 mph 12 mph 62% 0 in
12:19 71.6 °F 58.8 °F 30.12 in NNW 6 mph 12 mph 64% 0 in
12:24 72.3 °F 58.1 °F 30.12 in NW 8.9 mph 9 mph 61% 0 in
12:29 72 °F 58.3 °F 30.12 in NNE 2 mph 10 mph 62% 0 in
12:34 70.9 °F 57.7 °F 30.13 in North 4 mph 10 mph 63% 0 in
12:39 70.2 °F 57.4 °F 30.13 in NNW 4.9 mph 12 mph 64% 0 in
12:44 70.2 °F 58.3 °F 30.13 in NNW 8.9 mph 13 mph 66% 0 in
12:49 69.8 °F 57.6 °F 30.13 in NNE 8.1 mph 12 mph 65% 0 in
12:54 69.4 °F 57.6 °F 30.12 in NNW 4.9 mph 11 mph 66% 0 in
12:59 69.3 °F 57.9 °F 30.12 in NNE 4.9 mph 11 mph 67% 0 in
13:04 68.9 °F 57.6 °F 30.13 in NNW 4.9 mph 12 mph 67% 0 in
13:09 68.7 °F 56.5 °F 30.13 in North 4.9 mph 14 mph 65% 0 in
13:14 68.7 °F 56.1 °F 30.13 in NNW 6 mph 16 mph 64% 0 in
13:19 68.4 °F 56.1 °F 30.13 in NE 4 mph 11 mph 65% 0 in
13:24 68.5 °F 57.2 °F 30.12 in NNE 4.9 mph 12 mph 67% 0 in
13:29 68.9 °F 57 °F 30.13 in North 4 mph 8 mph 66% 0 in
13:34 68.5 °F 56.3 °F 30.13 in North 6 mph 10 mph 65% 0 in
13:39 68.7 °F 57.4 °F 30.13 in North 2.9 mph 8 mph 67% 0 in
13:44 68 °F 56.7 °F 30.14 in North 4 mph 14 mph 67% 0 in
13:49 67.5 °F 56.5 °F 30.14 in NNW 6 mph 14 mph 68% 0 in
13:54 67.3 °F 56.8 °F 30.14 in NNW 11 mph 11 mph 69% 0 in
13:59 67.1 °F 55.8 °F 30.14 in NW 2.9 mph 11 mph 67% 0 in
14:04 67.1 °F 56.1 °F 30.14 in North 6 mph 13 mph 68% 0 in
14:09 66.7 °F 55.8 °F 30.14 in NNE 4 mph 8 mph 68% 0 in
14:14 66.7 °F 55.4 °F 30.14 in NNE 4.9 mph 12 mph 67% 0 in
14:19 66.4 °F 55 °F 30.15 in North 6 mph 12 mph 67% 0 in
14:24 66.2 °F 54.9 °F 30.15 in ENE 4 mph 9 mph 67% 0 in
14:29 65.8 °F 54.5 °F 30.15 in North 4.9 mph 14 mph 67% 0 in
14:34 65.5 °F 54.7 °F 30.14 in North 8.1 mph 8 mph 68% 0 in
14:39 65.5 °F 54.3 °F 30.14 in NNW 10.1 mph 11 mph 67% 0 in
Atglen Borough, Pennsylvania, USA
Compliments of Weather Underground - 3 mb